BEIDOU-3 M12 (C26)

Last updated on Fri Sep 12 2025 00:03:24 GMT+0000 (Coordinated Universal Time)

1 43602U 18067A 25253.69036066 .00000038 00000+0 00000+0 0 9999 2 43602 54.1893 190.5192 0008042 29.3415 330.6961 1.86227548 47914
UTC large
Height (km)
Speed (km/s)
/
Latitude / Longitude
Inclination (degrees)
Orbital Period (minutes)
Azimuth
Elevation
Range (km)
Doppler Factor

Next 0 passes for location: London (51.5072 / 0.1276)

Sorry there are no passes over London.